When you browse on this site, cookies collect data to enhance your experience and personalize the content and advertising you see.
Visit our Privacy Policy to learn more. By continuing to use the site, you agree to this use of cookies and data.
  • In Österreich
  • Länderverzeichnis
  • Für 7 Tage
  • Wassertemperatur
  • Wetterkarte
  • News
  • Widgets
  • user-avatar
    Anmelden

    Stündliche Wetter Mendoza

    Heute, 19 Januar, Sonntag

    Zeit Temperatur Niederschläge Wind Luftdruck Luftfeuchtigkeit
    00:00 +29°C° 0 mm 2 m/S 697 mmHg 48%
    01:00 +28°C° 0 mm 1 m/S 697 mmHg 51%
    02:00 +27°C° 0 mm 1 m/S 697 mmHg 53%
    03:00 +27°C° 0 mm 1 m/S 696 mmHg 56%
    04:00 +26°C° 0 mm 1 m/S 696 mmHg 58%
    05:00 +27°C° 0 mm 1 m/S 696 mmHg 56%
    06:00 +28°C° 0 mm 1 m/S 697 mmHg 53%
    07:00 +29°C° 0 mm 2 m/S 697 mmHg 52%
    08:00 +31°C° 0 mm 2 m/S 697 mmHg 48%
    09:00 +32°C° 0 mm 2 m/S 697 mmHg 45%
    10:00 +34°C° 0 mm 2 m/S 697 mmHg 41%
    11:00 +35°C° 0 mm 2 m/S 696 mmHg 38%
    12:00 +37°C° 0 mm 3 m/S 696 mmHg 35%
    13:00 +38°C° 0 mm 3 m/S 696 mmHg 32%
    14:00 +38°C° 0.1 mm 2 m/S 696 mmHg 32%
    15:00 +38°C° 0.1 mm 2 m/S 696 mmHg 32%
    16:00 +38°C° 0.1 mm 2 m/S 696 mmHg 31%
    17:00 +37°C° 0 mm 2 m/S 696 mmHg 32%
    18:00 +37°C° 0 mm 3 m/S 697 mmHg 34%
    19:00 +36°C° 0 mm 3 m/S 697 mmHg 35%
    20:00 +35°C° 0.1 mm 2 m/S 697 mmHg 37%
    21:00 +35°C° 0.1 mm 2 m/S 697 mmHg 39%
    22:00 +34°C° 0.1 mm 2 m/S 698 mmHg 41%
    23:00 +34°C° 0 mm 2 m/S 697 mmHg 42%

    Morgen, 20 Januar, Montag

    Zeit Temperatur Niederschläge Wind Luftdruck Luftfeuchtigkeit
    00:00 +32°C° 0 mm 2 m/S 697 mmHg 43%
    01:00 +32°C° 0 mm 2 m/S 697 mmHg 44%
    02:00 +31°C° 0 mm 2 m/S 696 mmHg 46%
    03:00 +30°C° 0 mm 1 m/S 696 mmHg 48%
    04:00 +30°C° 0 mm 1 m/S 696 mmHg 49%
    05:00 +31°C° 0 mm 1 m/S 696 mmHg 46%
    06:00 +32°C° 0 mm 1 m/S 697 mmHg 43%
    07:00 +33°C° 0 mm 1 m/S 697 mmHg 40%
    08:00 +35°C° 0 mm 2 m/S 697 mmHg 38%
    09:00 +37°C° 0 mm 2 m/S 697 mmHg 35%
    10:00 +38°C° 0 mm 2 m/S 697 mmHg 32%
    11:00 +39°C° 0 mm 2 m/S 697 mmHg 29%
    12:00 +40°C° 0 mm 3 m/S 696 mmHg 27%
    13:00 +42°C° 0 mm 3 m/S 696 mmHg 24%
    14:00 +42°C° 0 mm 3 m/S 696 mmHg 23%
    15:00 +42°C° 0 mm 3 m/S 696 mmHg 23%
    16:00 +42°C° 0 mm 3 m/S 695 mmHg 22%
    17:00 +38°C° 0.4 mm 6 m/S 695 mmHg 34%
    18:00 +33°C° 0.4 mm 8 m/S 696 mmHg 45%
    19:00 +27°C° 0.4 mm 11 m/S 696 mmHg 57%
    20:00 +27°C° 0.3 mm 8 m/S 697 mmHg 56%
    21:00 +28°C° 0.3 mm 6 m/S 697 mmHg 54%
    22:00 +28°C° 0.3 mm 3 m/S 698 mmHg 53%
    23:00 +28°C° 0.1 mm 3 m/S 698 mmHg 52%

    übermorgen, 21 Januar, Dienstag

    Zeit Temperatur Niederschläge Wind Luftdruck Luftfeuchtigkeit
    00:00 +29°C° 0.1 mm 3 m/S 698 mmHg 51%
    01:00 +29°C° 0.1 mm 2 m/S 698 mmHg 49%
    02:00 +28°C° 0 mm 2 m/S 698 mmHg 50%
    03:00 +28°C° 0 mm 2 m/S 698 mmHg 51%
    04:00 +28°C° 0 mm 1 m/S 698 mmHg 53%
    05:00 +29°C° 0 mm 2 m/S 698 mmHg 48%
    06:00 +30°C° 0 mm 2 m/S 699 mmHg 43%
    07:00 +31°C° 0 mm 2 m/S 699 mmHg 38%
    08:00 +32°C° 0 mm 2 m/S 699 mmHg 35%
    09:00 +34°C° 0 mm 2 m/S 699 mmHg 32%
    10:00 +36°C° 0 mm 2 m/S 699 mmHg 29%
    11:00 +37°C° 0 mm 3 m/S 698 mmHg 28%
    12:00 +37°C° 0 mm 3 m/S 698 mmHg 27%
    13:00 +38°C° 0 mm 4 m/S 697 mmHg 26%
    14:00 +38°C° 0 mm 4 m/S 697 mmHg 25%
    15:00 +40°C° 0 mm 4 m/S 697 mmHg 25%
    16:00 +40°C° 0 mm 5 m/S 696 mmHg 24%
    17:00 +38°C° 0 mm 4 m/S 697 mmHg 25%
    18:00 +37°C° 0 mm 4 m/S 697 mmHg 26%
    19:00 +36°C° 0 mm 4 m/S 697 mmHg 27%
    20:00 +35°C° 0 mm 4 m/S 698 mmHg 30%
    21:00 +34°C° 0 mm 3 m/S 698 mmHg 33%
    22:00 +32°C° 0 mm 2 m/S 699 mmHg 36%
    23:00 +31°C° 0 mm 2 m/S 698 mmHg 41%

    22 Januar, Mittwoch

    Zeit Temperatur Niederschläge Wind Luftdruck Luftfeuchtigkeit
    00:00 +30°C° 0 mm 2 m/S 698 mmHg 45%
    01:00 +29°C° 0 mm 1 m/S 698 mmHg 49%
    02:00 +29°C° 0 mm 1 m/S 698 mmHg 51%
    03:00 +29°C° 0 mm 2 m/S 698 mmHg 52%
    04:00 +28°C° 0 mm 2 m/S 698 mmHg 54%
    05:00 +29°C° 0 mm 2 m/S 698 mmHg 51%
    06:00 +30°C° 0 mm 2 m/S 699 mmHg 48%
    07:00 +31°C° 0 mm 2 m/S 699 mmHg 46%
    08:00 +32°C° 0 mm 2 m/S 699 mmHg 41%
    09:00 +35°C° 0 mm 3 m/S 699 mmHg 37%
    10:00 +36°C° 0 mm 3 m/S 699 mmHg 33%
    11:00 +37°C° 0 mm 3 m/S 698 mmHg 31%
    12:00 +38°C° 0 mm 4 m/S 698 mmHg 29%
    13:00 +40°C° 0 mm 5 m/S 697 mmHg 27%
    14:00 +40°C° 0 mm 5 m/S 697 mmHg 26%
    15:00 +40°C° 0 mm 5 m/S 697 mmHg 26%
    16:00 +41°C° 0 mm 5 m/S 696 mmHg 25%
    17:00 +40°C° 0.1 mm 5 m/S 696 mmHg 27%
    18:00 +37°C° 0.1 mm 4 m/S 696 mmHg 29%
    19:00 +36°C° 0.1 mm 4 m/S 696 mmHg 30%
    20:00 +36°C° 0.1 mm 4 m/S 696 mmHg 32%
    21:00 +35°C° 0.1 mm 4 m/S 697 mmHg 33%
    22:00 +35°C° 0.1 mm 4 m/S 697 mmHg 34%
    23:00 +34°C° 0 mm 3 m/S 697 mmHg 37%

    23 Januar, Donnerstag

    Zeit Temperatur Niederschläge Wind Luftdruck Luftfeuchtigkeit
    00:00 +32°C° 0 mm 2 m/S 696 mmHg 39%
    01:00 +32°C° 0 mm 2 m/S 696 mmHg 42%
    02:00 +31°C° 0 mm 2 m/S 696 mmHg 44%
    03:00 +31°C° 0 mm 2 m/S 696 mmHg 47%
    04:00 +30°C° 0 mm 2 m/S 696 mmHg 49%
    05:00 +31°C° 0 mm 3 m/S 696 mmHg 47%
    06:00 +33°C° 0 mm 3 m/S 697 mmHg 45%
    07:00 +33°C° 0 mm 3 m/S 697 mmHg 43%
    08:00 +35°C° 0 mm 4 m/S 697 mmHg 40%
    09:00 +36°C° 0 mm 4 m/S 697 mmHg 37%
    10:00 +37°C° 0 mm 4 m/S 697 mmHg 34%
    11:00 +39°C° 0.1 mm 5 m/S 697 mmHg 32%
    12:00 +40°C° 0.1 mm 5 m/S 697 mmHg 29%
    13:00 +41°C° 0.1 mm 5 m/S 697 mmHg 26%
    14:00 +41°C° 0.3 mm 5 m/S 696 mmHg 28%
    15:00 +40°C° 0.3 mm 6 m/S 696 mmHg 30%
    16:00 +39°C° 0.3 mm 6 m/S 695 mmHg 32%
    17:00 +37°C° 0.6 mm 5 m/S 696 mmHg 35%
    18:00 +35°C° 0.6 mm 3 m/S 697 mmHg 39%
    19:00 +34°C° 0.6 mm 2 m/S 697 mmHg 43%
    20:00 +33°C° 0.2 mm 3 m/S 698 mmHg 46%
    21:00 +31°C° 0.2 mm 3 m/S 698 mmHg 49%
    22:00 +30°C° 0.2 mm 4 m/S 698 mmHg 52%
    23:00 +30°C° 0.1 mm 3 m/S 698 mmHg 54%

    24 Januar, Freitag

    Zeit Temperatur Niederschläge Wind Luftdruck Luftfeuchtigkeit
    00:00 +29°C° 0.1 mm 2 m/S 698 mmHg 56%
    01:00 +29°C° 0.1 mm 2 m/S 698 mmHg 59%
    02:00 +28°C° 0 mm 2 m/S 698 mmHg 58%
    03:00 +28°C° 0 mm 1 m/S 697 mmHg 58%
    04:00 +28°C° 0 mm 1 m/S 697 mmHg 58%
    05:00 +29°C° 0 mm 1 m/S 698 mmHg 52%
    06:00 +30°C° 0 mm 2 m/S 698 mmHg 46%
    07:00 +30°C° 0 mm 2 m/S 698 mmHg 41%
    08:00 +32°C° 0 mm 2 m/S 698 mmHg 38%
    09:00 +34°C° 0 mm 2 m/S 698 mmHg 36%
    10:00 +35°C° 0 mm 3 m/S 698 mmHg 33%
    11:00 +36°C° 0 mm 3 m/S 698 mmHg 31%
    12:00 +37°C° 0 mm 3 m/S 697 mmHg 29%
    13:00 +38°C° 0 mm 3 m/S 697 mmHg 26%
    14:00 +38°C° 0 mm 3 m/S 697 mmHg 25%
    15:00 +38°C° 0 mm 3 m/S 696 mmHg 24%
    16:00 +39°C° 0 mm 3 m/S 696 mmHg 23%
    17:00 +38°C° 0.1 mm 3 m/S 696 mmHg 24%
    18:00 +36°C° 0.1 mm 3 m/S 697 mmHg 25%
    19:00 +35°C° 0.1 mm 3 m/S 697 mmHg 27%
    20:00 +34°C° 0.4 mm 3 m/S 698 mmHg 30%
    21:00 +33°C° 0.4 mm 3 m/S 698 mmHg 33%
    22:00 +33°C° 0.4 mm 4 m/S 699 mmHg 36%
    23:00 +32°C° 0.1 mm 4 m/S 698 mmHg 38%
    Mehr zeigen